• In Italy
  • List of Countries
  • For 7 days
  • Water Temperature
  • Satellite Maps
  • Weather Map
  • Weather Widgets
  • user-avatar
    Login

    Hourly Weather Barra

    Today, 22 July, Saturday

    Time Temperature Precipitation Wind Pressure Humidity
    00:00 +18°C° 0 mm 2 mps 752 mmHg 91%
    01:00 +18°C° 0 mm 2 mps 752 mmHg 92%
    02:00 +18°C° 0 mm 2 mps 752 mmHg 93%
    03:00 +18°C° 0 mm 2 mps 752 mmHg 94%
    04:00 +18°C° 0 mm 2 mps 751 mmHg 95%
    05:00 +18°C° 0 mm 2 mps 752 mmHg 95%
    06:00 +18°C° 0 mm 2 mps 752 mmHg 95%
    07:00 +18°C° 0 mm 3 mps 752 mmHg 95%
    08:00 +20°C° 0 mm 3 mps 752 mmHg 87%
    09:00 +22°C° 0 mm 3 mps 753 mmHg 78%
    10:00 +23°C° 0 mm 4 mps 753 mmHg 70%
    11:00 +25°C° 0 mm 4 mps 752 mmHg 67%
    12:00 +26°C° 0 mm 4 mps 752 mmHg 65%
    13:00 +26°C° 0 mm 4 mps 751 mmHg 62%
    14:00 +26°C° 0 mm 4 mps 751 mmHg 63%
    15:00 +26°C° 0 mm 4 mps 751 mmHg 64%
    16:00 +25°C° 0 mm 4 mps 751 mmHg 65%
    17:00 +24°C° 0 mm 3 mps 751 mmHg 71%
    18:00 +21°C° 0 mm 3 mps 751 mmHg 77%
    19:00 +20°C° 0 mm 3 mps 752 mmHg 84%
    20:00 +19°C° 0 mm 3 mps 752 mmHg 86%
    21:00 +19°C° 0 mm 3 mps 752 mmHg 87%
    22:00 +18°C° 0 mm 3 mps 753 mmHg 89%
    23:00 +18°C° 0 mm 3 mps 752 mmHg 90%

    Tomorrow, 23 July, Sunday

    Time Temperature Precipitation Wind Pressure Humidity
    00:00 +18°C° 0 mm 3 mps 752 mmHg 90%
    01:00 +18°C° 0 mm 3 mps 752 mmHg 90%
    02:00 +18°C° 0 mm 3 mps 752 mmHg 91%
    03:00 +18°C° 0 mm 3 mps 752 mmHg 92%
    04:00 +18°C° 0 mm 2 mps 752 mmHg 92%
    05:00 +18°C° 0 mm 2 mps 752 mmHg 92%
    06:00 +18°C° 0 mm 2 mps 752 mmHg 92%
    07:00 +18°C° 0 mm 2 mps 753 mmHg 93%
    08:00 +20°C° 0 mm 3 mps 753 mmHg 84%
    09:00 +22°C° 0 mm 3 mps 753 mmHg 75%
    10:00 +25°C° 0 mm 3 mps 753 mmHg 67%
    11:00 +25°C° 0 mm 3 mps 753 mmHg 64%
    12:00 +26°C° 0 mm 3 mps 752 mmHg 61%
    13:00 +27°C° 0 mm 3 mps 751 mmHg 59%
    14:00 +26°C° 0 mm 4 mps 751 mmHg 61%
    15:00 +26°C° 0 mm 4 mps 750 mmHg 63%
    16:00 +26°C° 0 mm 4 mps 750 mmHg 65%
    17:00 +23°C° 0 mm 4 mps 750 mmHg 73%
    18:00 +21°C° 0 mm 3 mps 751 mmHg 81%
    19:00 +20°C° 0 mm 3 mps 751 mmHg 90%
    20:00 +20°C° 0 mm 3 mps 752 mmHg 91%
    21:00 +19°C° 0 mm 3 mps 752 mmHg 92%
    22:00 +19°C° 0 mm 3 mps 753 mmHg 94%
    23:00 +19°C° 0 mm 3 mps 753 mmHg 93%

    Day after tomorrow, 24 July, Monday

    Time Temperature Precipitation Wind Pressure Humidity
    00:00 +19°C° 0 mm 3 mps 752 mmHg 93%
    01:00 +19°C° 0 mm 3 mps 752 mmHg 93%
    02:00 +19°C° 0.1 mm 3 mps 752 mmHg 93%
    03:00 +20°C° 0.1 mm 3 mps 752 mmHg 93%
    04:00 +20°C° 0.1 mm 4 mps 751 mmHg 93%
    05:00 +20°C° 0.1 mm 4 mps 752 mmHg 94%
    06:00 +20°C° 0.1 mm 4 mps 752 mmHg 94%
    07:00 +20°C° 0.1 mm 4 mps 753 mmHg 94%
    08:00 +21°C° 0.1 mm 4 mps 753 mmHg 87%
    09:00 +22°C° 0.1 mm 4 mps 753 mmHg 81%
    10:00 +23°C° 0.1 mm 4 mps 754 mmHg 74%
    11:00 +25°C° 0 mm 4 mps 753 mmHg 71%
    12:00 +25°C° 0 mm 4 mps 753 mmHg 67%
    13:00 +26°C° 0 mm 4 mps 752 mmHg 64%
    14:00 +25°C° 0 mm 4 mps 752 mmHg 66%
    15:00 +25°C° 0 mm 4 mps 751 mmHg 68%
    16:00 +23°C° 0 mm 4 mps 751 mmHg 70%
    17:00 +22°C° 0.1 mm 4 mps 751 mmHg 76%
    18:00 +21°C° 0.1 mm 4 mps 752 mmHg 83%
    19:00 +20°C° 0.1 mm 4 mps 752 mmHg 89%
    20:00 +20°C° 0.1 mm 4 mps 753 mmHg 91%
    21:00 +19°C° 0.1 mm 4 mps 753 mmHg 92%
    22:00 +19°C° 0.1 mm 4 mps 753 mmHg 93%
    23:00 +19°C° 0.1 mm 4 mps 753 mmHg 93%

    25 July, Tuesday

    Time Temperature Precipitation Wind Pressure Humidity
    00:00 +20°C° 0.1 mm 4 mps 753 mmHg 93%
    01:00 +20°C° 0.1 mm 4 mps 753 mmHg 93%
    02:00 +20°C° 0.2 mm 4 mps 753 mmHg 93%
    03:00 +20°C° 0.2 mm 4 mps 752 mmHg 93%
    04:00 +20°C° 0.2 mm 4 mps 752 mmHg 93%
    05:00 +19°C° 0.1 mm 4 mps 753 mmHg 94%
    06:00 +19°C° 0.1 mm 4 mps 753 mmHg 94%
    07:00 +19°C° 0.1 mm 4 mps 754 mmHg 94%
    08:00 +20°C° 0.1 mm 4 mps 754 mmHg 88%
    09:00 +21°C° 0.1 mm 5 mps 754 mmHg 81%
    10:00 +23°C° 0.1 mm 5 mps 754 mmHg 74%
    11:00 +23°C° 0 mm 5 mps 754 mmHg 69%
    12:00 +25°C° 0 mm 5 mps 753 mmHg 63%
    13:00 +26°C° 0 mm 5 mps 752 mmHg 58%
    14:00 +25°C° 0 mm 5 mps 752 mmHg 59%
    15:00 +25°C° 0 mm 5 mps 752 mmHg 60%
    16:00 +25°C° 0 mm 5 mps 751 mmHg 61%
    17:00 +22°C° 0 mm 5 mps 752 mmHg 69%
    18:00 +21°C° 0 mm 5 mps 752 mmHg 76%
    19:00 +19°C° 0 mm 4 mps 753 mmHg 84%
    20:00 +19°C° 0 mm 4 mps 753 mmHg 85%
    21:00 +19°C° 0 mm 4 mps 753 mmHg 87%
    22:00 +18°C° 0 mm 4 mps 754 mmHg 89%
    23:00 +19°C° 0.1 mm 4 mps 753 mmHg 89%

    26 July, Wednesday

    Time Temperature Precipitation Wind Pressure Humidity
    00:00 +19°C° 0.1 mm 4 mps 753 mmHg 90%
    01:00 +19°C° 0.1 mm 4 mps 753 mmHg 90%
    02:00 +19°C° 0.1 mm 4 mps 753 mmHg 90%
    03:00 +19°C° 0.1 mm 4 mps 752 mmHg 91%
    04:00 +18°C° 0.1 mm 4 mps 752 mmHg 91%
    05:00 +18°C° 0.1 mm 4 mps 753 mmHg 91%
    06:00 +18°C° 0.1 mm 4 mps 753 mmHg 91%
    07:00 +18°C° 0.1 mm 4 mps 753 mmHg 91%
    08:00 +20°C° 0 mm 4 mps 754 mmHg 83%
    09:00 +21°C° 0 mm 4 mps 754 mmHg 76%
    10:00 +23°C° 0 mm 4 mps 754 mmHg 68%
    11:00 +25°C° 0 mm 4 mps 753 mmHg 63%
    12:00 +26°C° 0 mm 4 mps 753 mmHg 58%
    13:00 +27°C° 0 mm 5 mps 752 mmHg 53%
    14:00 +26°C° 0 mm 5 mps 752 mmHg 56%
    15:00 +26°C° 0 mm 5 mps 751 mmHg 59%
    16:00 +25°C° 0 mm 5 mps 751 mmHg 62%
    17:00 +23°C° 0.1 mm 4 mps 751 mmHg 72%
    18:00 +21°C° 0.1 mm 4 mps 752 mmHg 82%
    19:00 +20°C° 0.1 mm 4 mps 752 mmHg 93%
    20:00 +20°C° 0.3 mm 4 mps 753 mmHg 93%
    21:00 +20°C° 0.3 mm 4 mps 753 mmHg 94%
    22:00 +20°C° 0.3 mm 5 mps 754 mmHg 94%
    23:00 +20°C° 0.2 mm 5 mps 753 mmHg 94%

    27 July, Thursday

    Time Temperature Precipitation Wind Pressure Humidity
    00:00 +20°C° 0.2 mm 5 mps 753 mmHg 94%
    01:00 +20°C° 0.2 mm 5 mps 753 mmHg 94%
    02:00 +20°C° 0.1 mm 5 mps 753 mmHg 94%
    03:00 +19°C° 0.1 mm 5 mps 752 mmHg 94%
    04:00 +19°C° 0.1 mm 5 mps 752 mmHg 95%
    05:00 +19°C° 0.1 mm 5 mps 753 mmHg 95%
    06:00 +19°C° 0.1 mm 5 mps 753 mmHg 95%
    07:00 +17°C° 0.1 mm 5 mps 754 mmHg 95%
    08:00 +20°C° 0.1 mm 5 mps 754 mmHg 87%
    09:00 +21°C° 0.1 mm 5 mps 754 mmHg 80%
    10:00 +22°C° 0.1 mm 5 mps 754 mmHg 73%
    11:00 +23°C° 0.1 mm 5 mps 754 mmHg 67%
    12:00 +25°C° 0.1 mm 5 mps 753 mmHg 62%
    13:00 +26°C° 0.1 mm 5 mps 752 mmHg 57%
    14:00 +26°C° 0 mm 5 mps 752 mmHg 57%
    15:00 +25°C° 0 mm 5 mps 752 mmHg 57%
    16:00 +25°C° 0 mm 5 mps 751 mmHg 56%
    17:00 +22°C° 0 mm 4 mps 752 mmHg 64%
    18:00 +20°C° 0 mm 4 mps 752 mmHg 72%
    19:00 +19°C° 0 mm 4 mps 753 mmHg 80%
    20:00 +18°C° 0 mm 4 mps 753 mmHg 83%
    21:00 +18°C° 0 mm 4 mps 754 mmHg 87%
    22:00 +18°C° 0 mm 4 mps 754 mmHg 90%
    23:00 +18°C° 0.1 mm 4 mps 754 mmHg 92%
    Show more